#timestamp,LO_Frequency,Hit,StdDev 
1700902815.2,286046997.0,N
1700902835.0,286046996.6,N
1700902835.9,286046996.6,N
1700902855.7,286046996.7,N
1700902875.6,286046997.2,N
1700902895.4,286046999.4,N
1700902915.3,286046999.6,N
1700902935.1,286046999.2,N
1700902936.0,286046999.2,N
1700902955.8,286046999.1,N
1700902975.7,286046998.7,N
1700902995.5,286046998.6,N
1700903015.3,286046998.8,N
1700903035.2,286046998.1,N
1700903055.0,286046998.4,N
1700903055.9,286046998.4,N
1700903075.8,286046998.8,N
1700903095.6,286046999.6,N
1700903115.4,286046996.7,N
1700903135.3,286046996.6,N
1700903155.1,286046999.5,N
1700903175.9,286046999.6,N
1700903195.7,286046997.1,N
1700903215.5,286046998.9,N
1700903235.4,286046999.6,N
1700903255.2,286046999.2,N
1700903275.1,286046997.6,N
1700903306.0,286046997.5,E
1700903315.0,286046996.9,N
1700903315.9,286046996.9,P
1700903335.8,286046999.8,P
1700903355.6,286047002.4,N
1700903375.4,286047001.6,N
1700903395.3,286047002.0,N
1700903415.1,286046999.7,N
1700903435.8,286047001.2,N
1700903455.7,286046998.2,N
1700903475.5,286046998.6,N
1700903495.4,286046998.8,N
1700903515.2,286046999.9,N
1700903535.0,286047000.3,N
1700903535.9,286047000.3,N
1700903555.8,286047002.6,N
1700903575.6,286047002.7,N
1700903595.4,286046999.9,N
1700903615.3,286047002.6,N
1700903635.1,286047002.8,N
1700903655.9,286047004.2,N
1700903675.7,286047003.1,N
1700903695.5,286047005.9,N
1700903715.4,286047005.7,N
1700903735.2,286047003.3,N
1700903755.0,286047003.1,N
1700903755.9,286047003.1,N
1700903775.8,286047002.9,N
1700903795.6,286047003.7,N
1700903815.5,286047003.0,N
1700903835.3,286047002.9,N
1700903855.1,286047003.3,N
1700903875.9,286047003.4,N
1700903895.7,286047005.2,N
1700903915.5,286047007.5,Y
1700903935.4,286047003.1,P
1700903955.2,286047005.3,P
1700903975.1,286047005.7,P
1700903976.0,286047005.7,Y
1700903995.8,286047000.5,P
1700904015.6,286047001.2,N
1700904035.5,286047001.1,N
1700904055.3,286046998.7,N
1700904075.1,286046998.7,N
1700904095.9,286046996.9,N
1700904115.7,286046997.0,N
1700904135.6,286046996.6,N
1700904155.4,286046996.9,N
1700904175.2,286046999.2,N
1700904195.1,286046999.1,N
1700904196.0,286046999.1,N
1700904215.8,286046997.2,N
1700904235.7,286046996.7,N
1700904255.5,286046998.8,N
1700904275.3,286046999.5,N
1700904295.2,286046999.5,N
1700904315.0,286046997.4,N
1700904315.9,286046997.4,N
1700904335.7,286046996.7,N
1700904355.6,286046996.6,N
1700904375.4,286046998.5,N
1700904395.3,286046999.4,N
1700904415.1,286046997.0,N
1700904416.0,286046997.0,N
1700904435.8,286046999.1,N
1700904455.7,286046996.7,N
1700904475.5,286046997.0,N
1700904495.3,286046996.9,N
1700904515.2,286046995.3,N
1700904535.0,286046997.8,N
1700904535.9,286046997.8,N
1700904555.8,286046997.4,N
1700904575.6,286046997.3,N
1700904595.4,286046997.6,N
1700904615.3,286046997.4,N
1700904635.1,286046997.7,N
1700904655.8,286046999.0,N
1700904675.7,286046998.3,N
1700904695.5,286046999.2,N
1700904715.4,286046998.4,N
1700904735.2,286046998.8,N
1700904755.0,286046998.8,N
1700904755.9,286046998.8,N
1700904775.8,286046999.3,N
1700904795.6,286046996.7,Y
1700904815.5,286047000.8,P
1700904835.3,286046998.4,N
1700904855.1,286047000.8,N
1700904875.9,286046998.9,N
1700904895.7,286046997.1,N
1700904915.5,286046999.5,N
1700904935.4,286046999.0,N
1700904955.2,286047011.9,Y
1700904975.1,286047002.2,P
1700904976.0,286047002.2,N
1700904995.8,286047002.6,N
1700905015.6,286047000.1,N
1700905035.5,286047000.4,N
1700905055.3,286047000.5,N
1700905075.1,286047000.9,N
1700905095.9,286046998.1,N
1700905115.7,286047000.0,N
1700905135.6,286047000.7,N
1700905155.4,286046998.3,N
1700905175.2,286046998.8,N
1700905195.1,286046998.1,N
1700905196.0,286046998.1,N
1700905215.8,286047000.7,N
1700905235.7,286046999.9,N
1700905255.5,286047002.0,N
1700905275.3,286047002.8,N
1700905295.2,286047002.3,N
1700905315.0,286047002.7,N
1700905315.9,286047002.7,N
1700905335.8,286047002.0,N
1700905355.6,286047002.2,N
1700905375.4,286047002.1,N
1700905395.3,286047002.1,N
1700905415.1,286047001.6,N
1700905435.8,286047002.5,N
1700905455.7,286047002.1,N
1700905475.5,286047003.8,N
1700905495.4,286047004.1,N
1700905515.2,286047003.2,N
1700905535.0,286047003.2,N
1700905535.9,286047003.2,N
1700905555.8,286047004.4,N
1700905575.6,286047003.9,N
1700905595.4,286047002.5,N
1700905615.3,286047002.1,N
1700905635.1,286047001.4,N
1700905655.9,286047001.6,N
1700905675.7,286047001.4,N
1700905695.6,286047004.4,N
1700905715.4,286047001.6,N
1700905735.2,286047002.1,N
1700905755.1,286047001.3,N
1700905756.0,286047001.3,N
1700905775.8,286047003.6,Y
1700905795.6,286047002.0,P
1700905815.5,286047000.3,N
1700905835.3,286047000.8,N
1700905855.2,286047001.1,N
1700905875.0,286047000.9,N
1700905875.9,286047000.9,N
1700905895.8,286047000.3,N
1700905915.6,286047000.9,N
1700905935.4,286046998.2,N
1700905955.3,286046998.8,N
1700905975.1,286046999.3,N
1700905995.8,286046996.9,N
1700906015.7,286046997.4,N
1700906035.5,286046996.6,N
1700906055.4,286046997.0,N
1700906075.2,286046995.3,N
1700906095.0,286046997.4,N
1700906095.9,286046997.4,N
1700906115.8,286046997.3,N
1700906135.6,286046996.8,N
1700906155.5,286046996.9,N
1700906175.3,286046996.8,N
1700906195.2,286047011.9,Y
1700906215.9,286046999.5,P
1700906235.7,286046998.4,P
1700906255.6,286047000.7,N
1700906275.4,286046998.9,N
1700906295.3,286046999.0,N
1700906315.1,286046999.3,N
1700906316.0,286046999.3,N
1700906335.8,286046998.2,N
1700906355.7,286046998.9,N
1700906375.5,286046998.7,N
1700906395.4,286046999.0,N
